When you browse on this site, cookies collect data to enhance your experience and personalize the content and advertising you see.
Visit our Privacy Policy to learn more. By continuing to use the site, you agree to this use of cookies and data.
  • In United Kingdom
  • List of Countries
  • For 7 days
  • Water Temperature
  • Satellite Maps
  • Weather Map
  • Weather Widgets
  • user-avatar
    Login

    Hourly Weather Khulna

    Today, 26 May, Sunday

    Time Temperature Precipitation Wind Pressure Humidity
    00:00 +30°C° 0 mm 3 mps 750 mmHg 76%
    01:00 +30°C° 0 mm 3 mps 750 mmHg 78%
    02:00 +30°C° 0 mm 2 mps 750 mmHg 81%
    03:00 +30°C° 0 mm 2 mps 750 mmHg 84%
    04:00 +30°C° 0 mm 2 mps 750 mmHg 84%
    05:00 +31°C° 0 mm 2 mps 751 mmHg 84%
    06:00 +31°C° 0 mm 2 mps 751 mmHg 83%
    07:00 +33°C° 0 mm 3 mps 751 mmHg 79%
    08:00 +34°C° 0 mm 3 mps 752 mmHg 75%
    09:00 +35°C° 0 mm 3 mps 752 mmHg 71%
    10:00 +36°C° 0 mm 4 mps 752 mmHg 67%
    11:00 +37°C° 0 mm 4 mps 752 mmHg 64%
    12:00 +38°C° 0 mm 4 mps 752 mmHg 60%
    13:00 +38°C° 0 mm 4 mps 751 mmHg 58%
    14:00 +40°C° 0 mm 5 mps 751 mmHg 56%
    15:00 +41°C° 0 mm 5 mps 750 mmHg 53%
    16:00 +40°C° 0.2 mm 5 mps 750 mmHg 55%
    17:00 +39°C° 0.2 mm 5 mps 750 mmHg 57%
    18:00 +37°C° 0.2 mm 5 mps 749 mmHg 59%
    19:00 +36°C° 0 mm 5 mps 750 mmHg 65%
    20:00 +35°C° 0 mm 5 mps 750 mmHg 70%
    21:00 +34°C° 0 mm 5 mps 751 mmHg 75%
    22:00 +33°C° 0 mm 4 mps 751 mmHg 77%
    23:00 +33°C° 0 mm 4 mps 751 mmHg 79%

    Tomorrow, 27 May, Monday

    Time Temperature Precipitation Wind Pressure Humidity
    00:00 +31°C° 0 mm 3 mps 751 mmHg 81%
    01:00 +31°C° 0 mm 3 mps 751 mmHg 81%
    02:00 +31°C° 0 mm 3 mps 751 mmHg 82%
    03:00 +31°C° 0 mm 3 mps 751 mmHg 82%
    04:00 +33°C° 0 mm 3 mps 751 mmHg 81%
    05:00 +33°C° 0 mm 3 mps 751 mmHg 79%
    06:00 +33°C° 0 mm 3 mps 751 mmHg 77%
    07:00 +33°C° 0 mm 3 mps 751 mmHg 74%
    08:00 +34°C° 0 mm 3 mps 752 mmHg 71%
    09:00 +35°C° 0 mm 4 mps 752 mmHg 68%
    10:00 +37°C° 0 mm 4 mps 752 mmHg 60%
    11:00 +40°C° 0 mm 4 mps 752 mmHg 53%
    12:00 +42°C° 0 mm 4 mps 752 mmHg 45%
    13:00 +43°C° 0 mm 4 mps 751 mmHg 41%
    14:00 +44°C° 0 mm 4 mps 751 mmHg 37%
    15:00 +45°C° 0 mm 4 mps 750 mmHg 33%
    16:00 +42°C° 2.7 mm 4 mps 750 mmHg 43%
    17:00 +39°C° 2.7 mm 3 mps 749 mmHg 53%
    18:00 +37°C° 2.7 mm 3 mps 749 mmHg 63%
    19:00 +36°C° 1.6 mm 4 mps 750 mmHg 68%
    20:00 +35°C° 1.6 mm 5 mps 750 mmHg 73%
    21:00 +34°C° 1.6 mm 5 mps 751 mmHg 78%
    22:00 +33°C° 0 mm 5 mps 751 mmHg 79%
    23:00 +33°C° 0 mm 5 mps 751 mmHg 80%

    Day after tomorrow, 28 May, Tuesday

    Time Temperature Precipitation Wind Pressure Humidity
    00:00 +33°C° 0 mm 4 mps 751 mmHg 80%
    01:00 +33°C° 0 mm 4 mps 751 mmHg 82%
    02:00 +31°C° 0 mm 3 mps 751 mmHg 83%
    03:00 +31°C° 0 mm 3 mps 751 mmHg 84%
    04:00 +31°C° 0 mm 3 mps 751 mmHg 84%
    05:00 +31°C° 0 mm 3 mps 751 mmHg 84%
    06:00 +31°C° 0 mm 3 mps 751 mmHg 84%
    07:00 +34°C° 0 mm 4 mps 752 mmHg 76%
    08:00 +36°C° 0 mm 4 mps 752 mmHg 67%
    09:00 +37°C° 0 mm 4 mps 753 mmHg 59%
    10:00 +40°C° 0 mm 4 mps 752 mmHg 52%
    11:00 +42°C° 0 mm 4 mps 752 mmHg 45%
    12:00 +44°C° 0 mm 4 mps 752 mmHg 39%
    13:00 +45°C° 0 mm 5 mps 751 mmHg 37%
    14:00 +45°C° 0 mm 5 mps 750 mmHg 36%
    15:00 +46°C° 0 mm 5 mps 749 mmHg 35%
    16:00 +44°C° 0 mm 6 mps 749 mmHg 41%
    17:00 +41°C° 0 mm 6 mps 749 mmHg 46%
    18:00 +39°C° 0 mm 6 mps 749 mmHg 52%
    19:00 +38°C° 0 mm 6 mps 750 mmHg 59%
    20:00 +36°C° 0 mm 5 mps 750 mmHg 66%
    21:00 +34°C° 0 mm 5 mps 751 mmHg 73%
    22:00 +34°C° 0 mm 5 mps 751 mmHg 74%
    23:00 +34°C° 0 mm 5 mps 751 mmHg 75%

    29 May, Wednesday

    Time Temperature Precipitation Wind Pressure Humidity
    00:00 +33°C° 0 mm 5 mps 751 mmHg 76%
    01:00 +33°C° 0 mm 5 mps 751 mmHg 77%
    02:00 +33°C° 0 mm 4 mps 751 mmHg 79%
    03:00 +33°C° 0 mm 4 mps 751 mmHg 80%
    04:00 +31°C° 0 mm 3 mps 751 mmHg 81%
    05:00 +31°C° 0 mm 3 mps 751 mmHg 82%
    06:00 +31°C° 0 mm 3 mps 751 mmHg 83%
    07:00 +33°C° 0 mm 3 mps 752 mmHg 77%
    08:00 +35°C° 0 mm 4 mps 752 mmHg 71%
    09:00 +36°C° 0 mm 4 mps 752 mmHg 65%
    10:00 +39°C° 0 mm 5 mps 752 mmHg 57%
    11:00 +41°C° 0 mm 5 mps 752 mmHg 49%
    12:00 +43°C° 0 mm 5 mps 752 mmHg 41%
    13:00 +43°C° 0 mm 5 mps 751 mmHg 40%
    14:00 +45°C° 0 mm 6 mps 750 mmHg 38%
    15:00 +45°C° 0 mm 6 mps 749 mmHg 37%
    16:00 +42°C° 0 mm 6 mps 749 mmHg 43%
    17:00 +41°C° 0 mm 6 mps 749 mmHg 49%
    18:00 +39°C° 0 mm 6 mps 749 mmHg 55%
    19:00 +38°C° 0 mm 6 mps 749 mmHg 61%
    20:00 +35°C° 0 mm 6 mps 750 mmHg 67%
    21:00 +34°C° 0 mm 6 mps 750 mmHg 73%
    22:00 +34°C° 0 mm 6 mps 750 mmHg 74%
    23:00 +33°C° 0 mm 6 mps 751 mmHg 75%

    30 May, Thursday

    Time Temperature Precipitation Wind Pressure Humidity
    00:00 +33°C° 0 mm 6 mps 751 mmHg 76%
    01:00 +33°C° 0 mm 5 mps 750 mmHg 77%
    02:00 +33°C° 0 mm 4 mps 750 mmHg 77%
    03:00 +33°C° 0 mm 4 mps 750 mmHg 77%
    04:00 +33°C° 0 mm 4 mps 751 mmHg 77%
    05:00 +33°C° 0 mm 4 mps 751 mmHg 77%
    06:00 +33°C° 0 mm 5 mps 751 mmHg 76%
    07:00 +34°C° 0 mm 5 mps 752 mmHg 74%
    08:00 +34°C° 0 mm 5 mps 752 mmHg 71%
    09:00 +35°C° 0 mm 5 mps 753 mmHg 68%
    10:00 +37°C° 0 mm 5 mps 752 mmHg 60%
    11:00 +40°C° 0 mm 5 mps 752 mmHg 51%
    12:00 +42°C° 0 mm 5 mps 751 mmHg 42%
    13:00 +43°C° 0 mm 5 mps 751 mmHg 41%
    14:00 +44°C° 0 mm 6 mps 750 mmHg 40%
    15:00 +44°C° 0 mm 6 mps 749 mmHg 39%
    16:00 +43°C° 0 mm 7 mps 749 mmHg 46%
    17:00 +40°C° 0 mm 7 mps 749 mmHg 53%
    18:00 +38°C° 0 mm 7 mps 749 mmHg 60%
    19:00 +36°C° 0 mm 7 mps 750 mmHg 64%
    20:00 +35°C° 0 mm 6 mps 750 mmHg 68%
    21:00 +34°C° 0 mm 6 mps 751 mmHg 72%
    22:00 +33°C° 0 mm 6 mps 751 mmHg 73%
    23:00 +33°C° 0 mm 6 mps 751 mmHg 75%

    31 May, Friday

    Time Temperature Precipitation Wind Pressure Humidity
    00:00 +33°C° 0 mm 5 mps 751 mmHg 77%
    01:00 +33°C° 0 mm 5 mps 751 mmHg 75%
    02:00 +33°C° 0 mm 5 mps 751 mmHg 74%
    03:00 +33°C° 0 mm 5 mps 750 mmHg 72%
    04:00 +33°C° 0 mm 5 mps 751 mmHg 71%
    05:00 +33°C° 0 mm 5 mps 751 mmHg 70%
    06:00 +33°C° 0 mm 5 mps 751 mmHg 69%
    07:00 +35°C° 0 mm 5 mps 752 mmHg 64%
    08:00 +36°C° 0 mm 5 mps 752 mmHg 59%
    09:00 +38°C° 0 mm 6 mps 752 mmHg 55%
    10:00 +40°C° 0 mm 6 mps 752 mmHg 50%
    11:00 +41°C° 0 mm 6 mps 752 mmHg 45%
    12:00 +44°C° 0 mm 7 mps 751 mmHg 41%
    13:00 +43°C° 0 mm 7 mps 751 mmHg 42%
    14:00 +43°C° 0 mm 7 mps 750 mmHg 42%
    15:00 +43°C° 0 mm 7 mps 749 mmHg 43%
    16:00 +41°C° 0 mm 7 mps 749 mmHg 48%
    17:00 +39°C° 0 mm 7 mps 749 mmHg 53%
    18:00 +38°C° 0 mm 6 mps 749 mmHg 58%
    19:00 +36°C° 0 mm 6 mps 750 mmHg 61%
    20:00 +35°C° 0 mm 6 mps 750 mmHg 65%
    21:00 +34°C° 0 mm 6 mps 751 mmHg 69%
    22:00 +34°C° 0 mm 6 mps 751 mmHg 71%
    23:00 +34°C° 0 mm 6 mps 751 mmHg 73%
    Show more